FW2265 Weather Reports


Display with metric or nautical units.
time (UTC)temp
F
wind
direction
speed
MPH
gust
MPH
rain 1hr
in
rain 24hr
in
rain mn
in
humidity
%
barometer
mb
20260506122924 76 225 0.0 0.0 0.00 0.00 0.00 94 1010.5
20260506121824 76 225 0.0 0.0 0.00 0.00 0.00 93 1010.4
20260506120923 76 188 0.0 2.0 0.00 0.00 0.00 95 1010.4
20260506115924 76 202 0.0 1.0 0.00 0.00 0.00 95 1010.2
20260506114924 76 202 0.0 0.0 0.00 0.00 0.00 95 1010.0
20260506114825 75 217 0.0 1.0 0.00 0.00 0.00 95 1009.9
20260506113824 75 225 0.0 0.0 0.00 0.00 0.00 94 1009.8
20260506111823 76 225 0.0 0.0 0.00 0.00 0.00 95 1009.6
20260506110922 76 225 0.0 1.0 0.00 0.00 0.00 95 1009.6
20260506105926 75 225 0.0 2.0 0.00 0.00 0.00 95 1009.4
20260506105023 75 247 0.0 0.0 0.00 0.00 0.00 94 1009.7
20260506104024 75 225 0.0 0.0 0.00 0.00 0.00 95 1009.6
20260506103925 75 225 0.0 0.0 0.00 0.00 0.00 94 1009.6
20260506102924 75 225 0.0 0.0 0.00 0.00 0.00 94 1009.5
20260506101924 75 225 0.0 0.0 0.00 0.00 0.00 95 1009.7
20260506100039 75 225 0.0 0.0 0.00 0.00 0.00 94 1009.4
20260506095024 75 225 0.0 0.0 0.00 0.00 0.00 94 1009.4
20260506094025 75 225 0.0 0.0 0.00 0.00 0.00 93 1009.3
20260506093122 76 225 0.0 0.0 0.00 0.00 0.00 93 1009.4
20260506093024 76 225 0.0 0.0 0.00 0.00 0.00 92 1009.3
20260506092023 76 225 0.0 0.0 0.00 0.00 0.00 93 1009.4
20260506091023 76 225 0.0 0.0 0.00 0.00 0.00 92 1009.4
20260506083123 76 180 0.0 1.0 0.00 0.00 0.00 92 1009.9
20260506082126 76 225 0.0 0.0 0.00 0.00 0.00 91 1009.6
20260506081125 77 225 0.0 0.0 0.00 0.00 0.00 91 1009.7
20260506080125 77 221 0.0 1.0 0.00 0.00 0.00 91 1009.8
20260506073323 77 220 2.0 4.0 0.00 0.00 0.00 90 1010.2
20260506072325 77 207 1.0 3.0 0.00 0.00 0.00 90 1010.4
20260506071422 77 235 0.0 4.0 0.00 0.00 0.00 90 1010.4
20260506061624 77 225 0.0 2.0 0.00 0.00 0.00 89 1010.3
20260506060622 77 202 0.0 1.0 0.00 0.00 0.00 90 1010.3
20260506050722 77 214 0.0 1.0 0.00 0.00 0.00 88 1010.5
20260506043722 77 215 1.0 3.0 0.00 0.00 0.00 89 1010.4
20260506042724 77 180 0.0 1.0 0.00 0.00 0.00 88 1010.3
20260506041724 77 227 0.0 1.0 0.00 0.00 0.00 89 1010.4
20260506035723 77 202 0.0 1.0 0.00 0.00 0.00 89 1010.2
20260506033726 77 222 1.0 4.0 0.00 0.00 0.00 87 1010.2
20260506031725 77 225 1.0 3.0 0.00 0.00 0.00 88 1010.1
20260506030724 77 225 0.0 3.0 0.00 0.00 0.00 89 1010.0
20260506025723 77 178 0.0 1.0 0.00 0.00 0.00 89 1009.9
20260506024723 77 217 1.0 3.0 0.00 0.00 0.00 89 1009.8
20260506024624 77 225 0.0 1.0 0.00 0.00 0.00 89 1009.9
20260506023624 77 192 0.0 3.0 0.00 0.00 0.00 89 1009.5
20260506022722 77 225 0.0 1.0 0.00 0.00 0.00 88 1009.4
20260506021722 77 214 1.0 4.0 0.00 0.00 0.00 88 1009.3
20260506020723 77 188 0.0 2.0 0.00 0.00 0.00 88 1009.3
20260506015724 77 225 0.0 3.0 0.00 0.00 0.00 87 1009.0
20260506014724 77 202 0.0 2.0 0.00 0.00 0.00 87 1008.9
20260506013822 78 180 0.0 2.0 0.00 0.00 0.00 86 1008.8
20260506012822 78 173 1.0 9.0 0.00 0.00 0.00 86 1008.8
20260506011824 78 189 0.0 1.0 0.00 0.00 0.00 85 1008.7
20260506010825 78 225 0.0 1.0 0.00 0.00 0.00 84 1008.5
20260506005923 78 232 2.0 4.0 0.00 0.00 0.00 85 1008.5
20260506004024 78 206 1.0 4.0 0.00 0.00 0.00 84 1008.3
20260506003023 79 219 2.0 4.0 0.00 0.00 0.00 84 1008.2
20260506002025 79 183 0.0 2.0 0.00 0.00 0.00 83 1008.3
20260506001121 79 215 2.0 5.0 0.00 0.00 0.00 83 1008.1
20260506000122 79 218 1.0 4.0 0.00 0.00 0.00 83 1008.2
20260505235125 79 156 0.0 3.0 0.00 0.00 0.00 81 1008.1
20260505234223 79 201 2.0 7.0 0.00 0.00 0.00 81 1008.1
20260505233121 80 217 1.0 4.0 0.00 0.00 0.00 81 1008.3
20260505230222 80 185 0.0 4.0 0.00 0.00 0.00 78 1008.4
20260505225223 80 226 3.0 5.0 0.00 0.00 0.00 78 1008.3
20260505224224 80 220 0.0 0.0 0.00 0.00 0.00 80 1008.2
20260505222222 80 182 0.0 3.0 0.00 0.00 0.00 81 1008.3
20260505221223 80 193 0.0 2.0 0.00 0.00 0.00 80 1008.4
20260505220224 80 204 2.0 4.0 0.00 0.00 0.00 80 1008.4
20260505215223 81 185 0.0 3.0 0.00 0.00 0.00 80 1008.7
20260505214223 81 168 0.0 1.0 0.00 0.00 0.00 79 1008.6
20260505213223 81 192 1.0 4.0 0.00 0.00 0.00 79 1008.8
20260505212124 80 208 1.0 3.0 0.00 0.00 0.00 81 1008.8
20260505211125 81 213 3.0 5.0 0.00 0.00 0.00 80 1009.0
20260505210122 81 185 0.0 1.0 0.00 0.00 0.00 80 1008.8
20260505205123 81 180 0.0 1.0 0.00 0.00 0.00 81 1009.2
20260505203123 80 204 2.0 4.0 0.00 0.00 0.00 81 1009.4
20260505201123 81 191 0.0 1.0 0.00 0.00 0.00 80 1009.7
20260505200124 81 225 2.0 4.0 0.00 0.00 0.00 80 1009.7
20260505195222 81 231 0.0 1.0 0.00 0.00 0.00 81 1009.7
20260505195123 81 206 0.0 1.0 0.00 0.00 0.00 81 1009.9
20260505194124 81 192 1.0 6.0 0.00 0.00 0.00 80 1009.9
20260505193221 81 204 2.0 6.0 0.00 0.00 0.00 82 1009.9
20260505192225 79 247 0.0 1.0 0.00 0.00 0.00 84 1010.0
20260505191222 79 220 3.0 8.0 0.00 0.00 0.00 84 1010.1
20260505185224 79 212 2.0 4.0 0.00 0.00 0.00 85 1010.2
20260505184222 78 207 1.0 5.0 0.00 0.00 0.00 86 1010.2
20260505182323 78 223 3.0 6.0 0.00 0.00 0.00 85 1010.4
20260505181322 79 225 0.0 3.0 0.00 0.00 0.00 83 1010.5
20260505180323 79 225 0.0 1.0 0.00 0.00 0.00 83 1010.5
20260505175323 79 196 3.0 5.0 0.00 0.00 0.00 84 1010.5
20260505174324 78 208 1.0 3.0 0.00 0.00 0.00 84 1010.6
20260505173323 78 180 0.0 1.0 0.00 0.00 0.00 84 1010.6
20260505172322 79 194 0.0 2.0 0.00 0.00 0.00 84 1010.7
20260505171325 79 174 0.0 2.0 0.00 0.00 0.00 83 1010.8
20260505170421 78 211 0.0 3.0 0.00 0.00 0.00 82 1010.9
20260505165423 78 193 1.0 4.0 0.00 0.00 0.00 83 1010.8
20260505164421 79 225 0.0 2.0 0.00 0.00 0.00 81 1010.8
20260505164322 79 236 0.0 2.0 0.00 0.00 0.00 82 1010.7
20260505163322 79 180 0.0 1.0 0.00 0.00 0.00 82 1010.7
20260505162322 78 200 1.0 3.0 0.00 0.00 0.00 82 1010.8
20260505161324 78 220 0.0 2.0 0.00 0.00 0.00 81 1010.7
20260505160325 78 221 1.0 4.0 0.00 0.00 0.00 81 1010.6
20260505152525 78 224 2.0 4.0 0.00 0.00 0.00 80 1010.5
20260505151525 78 219 2.0 7.0 0.00 0.00 0.00 81 1010.4
20260505150623 78 209 1.0 4.0 0.00 0.00 0.00 85 1010.3
20260505140523 76 209 2.0 3.0 0.00 0.00 0.00 85 1010.4